sat.trackr.live / text

‹ back to catalog

STARLINK-5779

NORAD 56028 · 2023-042AU

PAYLOAD ACTIVE UNKNOWN

§ Identity

Operator
Country
US
Launch date
2023-03-24
Launch site
AFETR
Launch vehicle
Mass (kg)
RCS (m²)

Purposes: comms

External: N2YO · Heavens-Above · Gunter

§ Orbital elements

Epoch: 2026-05-24T17:09:38.391552Z

Period
94.27 min
Inclination
43.0062°
Eccentricity
0.0002127
Mean motion
15.27590108 rev/d
Perigee alt
481.6 km
Apogee alt
484.5 km
Semi-major
6,861.2 km
B*
1.9035e-6
RAAN
335.7738°
Arg perigee
246.3790°
Mean anomaly
113.6839°
Rev number
17,466

§ Raw data

STARLINK-57791 56028U 23042AU  26144.71502768 -.00000210  00000+0  19035-5 0  99912 56028  43.0062 335.7738 0002127 246.3790 113.6839 15.27590108174660

JSON: /api/v1/satellites/56028 · /tle

For live sub-satellite position, see the globe view (requires WebGL).

§ Visibility from observer

Set your observer location to see the next 7 days of passes ≥ 10°. The values pass through the URL so the page stays shareable.

No JS? Fill the form by hand. The geolocation button needs JavaScript.